www.pogodaiklimat.ru

Погода и климат >> Архив погоды >> Индия >> Андхра-Прадеш >> Кавали


ПОГОДА в Кавали

  • Прогноз погоды в Кавали
  • Монитор погоды в Кавали

АРХИВ ПОГОДЫ в Кавали

Время (UTC), дата Ветер
(напр.,м/с)
 
Видим.   Явления Облачность Т
(С)
Тd
(С)
f
(%)
Тe
(С)
Тes
(С)
Комфортность P
(гПа)
Po
(гПа)
Тmin
(С)
Tmax
(С)
R
(мм)
R24
(мм)
S
(см)
18 19.05 штиль 0 4000 м ясно +30.6 +27.0 81 +48 +48 опасность
перегрева
1008.1 1005.7
21 19.05 штиль 0 4000 м ясно +29.4 +27.5 90 +48 +48 опасность
перегрева
1006.6 1004.2
00 20.05 штиль 0 4000 м ясно +28.8 +26.9 89 +45 +45 опасность
перегрева
1006.9 1004.5
03 20.05 штиль 0 10 км 5/3 600 м
[Sc Ci sp]
+31.0 +24.7 69 +44 +51 опасность
перегрева
1008.9 1006.5 +27.0 +40.6
06 20.05 ЮВ 1 10 км ясно +37.0 +24.6 49 +49 +74 опасность
перегрева
1008.4 1006.0
09 20.05 ЮВ 2 10 км ясно +37.0 +26.9 56 +54 +71 опасность
перегрева
1005.5 1003.1
12 20.05 ЮВ 3 10 км ясно +33.6 +26.4 66 +50 +51 опасность
перегрева
1005.1 1002.7 +39.1
15 20.05 ЮВ 3 4000 м ясно +31.6 +25.1 69 +46 +46 опасность
перегрева
1006.7 1004.3
18 20.05 ЮВ 2 4000 м ясно +30.6 +25.5 74 +45 +45 опасность
перегрева
1007.8 1005.4
21 20.05 штиль 0 4000 м ясно +29.4 +26.9 86 +46 +46 опасность
перегрева
1006.1 1003.7
00 21.05 штиль 0 4000 м ясно +29.0 +24.7 78 +41 +41 опасность
перегрева
1006.5 1004.1
03 21.05 ЮВ 1 10 км ясно +32.2 +23.9 62 +44 +54 опасность
перегрева
1008.4 1006.0 +27.2 +39.1
06 21.05 Ю 1 10 км ясно +39.6 +19.7 32 +45 +70 опасность
перегрева
1007.6 1005.3
09 21.05 ЮВ 4 10 км ясно +37.0 +25.6 52 +51 +61 опасность
перегрева
1005.8 1003.4
12 21.05 Ю 3 10 км ясно +34.0 +26.8 66 +51 +53 опасность
перегрева
1004.9 1002.5 +41.1
15 21.05 ЮВ 1 4000 м ясно +31.8 +25.6 70 +47 +47 опасность
перегрева
1007.0 1004.6
18 21.05 штиль 0 10 км 3/0
[Ci sp]
+30.2 +26.0 78 +45 +45 опасность
перегрева
1007.9 1005.5
21 21.05 штиль 0 4000 м 1/0
[Ci fib]
+29.8 +26.7 83 +46 +46 опасность
перегрева
1006.7 1004.3
00 22.05 штиль 0 4000 м ясно +29.0 +26.2 85 +44 +44 опасность
перегрева
1006.6 1004.2
03 22.05 Ю 1 10 км ясно +32.0 +24.3 64 +44 +54 опасность
перегрева
1007.2 1004.8 +27.5 +41.1
06 22.05 З 1 10 км ясно +38.6 +24.9 46 +51 +76 опасность
перегрева
1007.1 1004.7
09 22.05 ЮВ 3 10 км ясно +36.6 +27.0 58 +54 +68 опасность
перегрева
1005.1 1002.7
12 22.05 ЮВ 2 10 км ясно +34.6 +26.3 62 +51 +52 опасность
перегрева
1004.1 1001.7 +38.9
15 22.05 ЮВ 2 4000 м ясно +32.2 +25.1 66 +46 +46 опасность
перегрева
1006.8 1004.4
18 22.05 ЮВ 1 4000 м ясно +30.6 +25.8 76 +46 +46 опасность
перегрева
1007.1 1004.7
21 22.05 штиль 0 4000 м ясно +29.6 +25.7 80 +44 +44 опасность
перегрева
1005.5 1003.1
00 23.05 штиль 0 4000 м ясно +29.0 +25.6 82 +43 +43 опасность
перегрева
1005.8 1003.4
03 23.05 ЮВ 1 10 км ясно +32.0 +25.5 69 +47 +56 опасность
перегрева
1008.2 1005.8 +27.5 +38.9
06 23.05 ЮВ 1 10 км ясно +37.8 +23.6 44 +48 +73 опасность
перегрева
1007.2 1004.8
09 23.05 ЮВ 2 10 км ясно +37.6 +26.6 54 +54 +71 опасность
перегрева
1005.0 1002.6
12 23.05 ЮВ 2 10 км ясно +33.8 +27.2 69 +53 +54 опасность
перегрева
1004.0 1001.6 +39.4
15 23.05 штиль 0 4000 м ясно +31.6 +26.9 76 +49 +49 опасность
перегрева
1006.9 1004.5
18 23.05 ЮВ 1 4000 м ясно +30.6 +26.7 80 +48 +48 опасность
перегрева
1007.3 1004.9
21 23.05 штиль 0 4000 м ясно +30.0 +27.2 85 +48 +48 опасность
перегрева
1006.8 1004.4
00 24.05 штиль 0 10 км ясно +29.2 +26.4 85 +45 +45 опасность
перегрева
1007.3 1004.9
03 24.05 ЮЗ 1 10 км ясно +31.6 +26.0 72 +47 +57 опасность
перегрева
1008.7 1006.3 +28.0 +39.4
06 24.05 ЮЗ 1 10 км ясно +38.2 +24.4 46 +50 +75 опасность
перегрева
1007.2 1004.8
09 24.05 ЮВ 1 10 км ясно +37.0 +27.1 57 +55 +73 опасность
перегрева
1004.8 1002.4
12 24.05 ЮВ 2 10 км ясно +34.0 +27.4 69 +53 +55 опасность
перегрева
1004.1 1001.7 +39.3
15 24.05 ЮВ 3 4000 м 3/3 600 м
[Sc]
+31.4 +27.3 79 +50 +50 опасность
перегрева
1006.1 1003.7
18 24.05 ЮЗ 1 4000 м 3/1 600 м
[Sc Ac trans]
+30.6 +27.0 81 +48 +48 опасность
перегрева
1006.4 1004.0
21 24.05 штиль 0 10 км ясно +30.4 +27.1 83 +48 +48 опасность
перегрева
1005.1 1002.7
00 25.05 штиль 0 4000 м ясно +30.0 +26.7 83 +47 +47 опасность
перегрева
1005.2 1002.8
03 25.05 ЮВ 1 10 км ясно +33.0 +26.9 70 +51 +60 опасность
перегрева
1006.8 1004.4 +28.6 +39.3
06 25.05 штиль 0 10 км ясно +40.2 +23.8 39 +50 +79 опасность
перегрева
1005.1 1002.8
09 25.05 Ю 1 10 км ясно +38.8 +26.8 51 +56 +74 опасность
перегрева
1003.0 1000.6
12 25.05 ЮВ 3 10 км ясно +35.0 +27.3 64 +53 +55 опасность
перегрева
1002.0 999.6 +41.1
15 25.05 ЮВ 2 4000 м ясно +32.0 +27.6 78 +52 +52 опасность
перегрева
1004.0 1001.6
18 25.05 ЮВ 1 4000 м ясно +32.0 +27.6 78 +52 +52 опасность
перегрева
1004.5 1002.1
21 25.05 ЮВ 1 4000 м ясно +31.2 +27.1 79 +49 +49 опасность
перегрева
1002.6 1000.2
00 26.05 штиль 0 4000 м ясно +30.0 +26.4 81 +46 +46 опасность
перегрева
1003.4 1001.0
03 26.05 ЮЗ 1 10 км ясно +33.4 +27.1 70 +52 +62 опасность
перегрева
1004.8 1002.4 +29.6 +41.1
06 26.05 Ю 1 10 км ясно +41.0 +24.9 40 +53 +78 опасность
перегрева
1003.6 1001.3
09 26.05 ЮВ 2 10 км 4/3 600 м
[Sc Ci sp]
+39.8 +26.4 47 +55 +67 опасность
перегрева
1001.0 998.7
12 26.05 ЮВ 1 10 км 5/4 600 м
[Cu Sc Ac trans]
+35.8 +27.9 64 +56 +57 опасность
перегрева
1001.4 999.0 +43.0
15 26.05 ЮВ 1 4000 м 3/1 600 м
[Sc Ci sp]
+33.8 +27.2 69 +53 +53 опасность
перегрева
1003.5 1001.1

 

Местоположение метеостанции Кавали (Андхра-Прадеш, Индия): широта 14.90 долгота 79.98 высота над уровнем моря 17 м.

В архиве по умолчанию представлена погода в Кавали за последнюю неделю. Архивные данные за месяц целиком и за предыдущие месяцы, начиная с января 2011 года, Вы можете получить, выбрав интересующий диапазон дат из раскрывающегося списка и нажав кнопку "Ввод!".


*Определитесь, кто Вы:
робот инопланетянин человек

Внимание! Время в таблицах - всемирное. Для получения местного времени необходимо прибавить поправку, которая равна 5.5 ч.

Смотрите также архив погоды в соседних городах и на ближайших метеорологических станциях:

Погода в Неллуру (Андхра-Прадеш, Индия) (50 км)
Погода в Онголе (Андхра-Прадеш, Индия) (65 км)
Погода в Бапатле (Андхра-Прадеш, Индия) (123 км)
Погода в Тирупати (Андхра-Прадеш, Индия) (143 км)
Погода в Рентчайнтале (Андхра-Прадеш, Индия) (189 км)
Погода в Мачилипатнаме (Андхра-Прадеш, Индия) (191 км)
Погода в Терутани (Тамилнад, Индия) (201 км)
Погода в Ганнавараме (Андхра-Прадеш, Индия) (201 км)
Погода в Ченнаи (Тамилнад, Индия) (205 км)
Погода в Нандигаме (Андхра-Прадеш, Индия) (212 км)

Пояснения к столбцам:

Ветер - указаны скорость ветра в м/с - средняя за 10 мин, порывы в срок и между сроками (в фигурных скобках) и направление, откуда дует ветер: С - северный, СВ - северо-восточный, В - восточный, ЮВ - юго-восточный, Ю - южный, ЮЗ - юго-западный, З - западный, СЗ - северо-западный.
Видимость - горизонтальная дальность видимости в метрах или километрах. При видимости от 1 до 10 км при отсутствии осадков обычно наблюдается дымка, при ухудшении видимости до 1 км и менее - туман. В сухую погоду видимость может ухудшаться дымом, пылью или мглою.
Явления - указаны атмосферные явления, наблюдавшиеся в срок или в последний час перед сроком; фигурными скобками обозначены явления, наблюдавшиеся между сроками (за 1-3 часа до срока); квадратными скобками обозначены град или гололедные отложения с указанием их диаметра в мм.
Облачность - указаны через наклонную черту общая и нижняя облачность в баллах и высота нижней границы облаков в метрах; квадратными скобками обозначены формы облаков: Ci - перистые, Cs - перисто-слоистые, Cc - перисто-кучевые, Ac - высококучевые, As - высокослоистые, Sc - слоисто-кучевые, Ns - слоисто-дождевые, Cu - кучевые, Cb - кучево-дождевые. Подробнее классификацию облаков см. в Атласе облаков (PDF).
T - Температура воздуха - температура, измеренная на высоте 2 м над землей.
Td - Температура точки росы - температура, при понижении до которой содержащийся в воздухе водяной пар достигнет насыщения.
f - Относительная влажность воздуха - влажноcть воздуха, измеренная на высоте 2 м над землей.
Te - Эффективная температура - температура, которую ощущает одетый по сезону человек в тени. Характеристика душности погоды. При расчете учитывается влияние влажности воздуха и скорости ветра на теплоощущения человека.
Tes - Эффективная температура на солнце - температура, которую ощущает человек, с поправкой на солнечный нагрев. Характеристика знойности погоды. Зависит от высоты солнца над горизонтом, облачности и скорости ветра. Ночью, в пасмурную погоду, а также при ветре 12 м/с и более поправка равна нулю.
P - Атмосферное давление - приведенное к уровню моря атмосферное давление.
Po - Атмосферное давление - измеренное на уровне метеостанции атмосферное давление.
Tmin - Минимальная температура - минимум температуры воздуха на высоте 2 м над землей.
Tmax - Максимальная температура - максимум температуры воздуха на высоте 2 м над землей.
R - Количество осадков - Количество выпавших осадков за период времени, мм. При наведении курсора мыши на число - период времени, за который выпало указанное количество осадков.
R24 - Количество осадков - Количество выпавших осадков за 24 часа, мм.
S - Снежный покров - Высота снежного покрова, см. При наведении курсора мыши на число - состояние снежного покрова и степень покрытия местности в баллах.